Simultaneous Nadir Overpasses (SNOs) Predictions

Prediction of SNOs near US between NOAA-19 and NPP Satellite Orbit:

Table of predicted SNOs near US for the next 10.0 days since TLE Epoch: 4/29/2013
Index Date (NOAA-19) Time (NOAA-19) NOAA-19 Lat,Lon Date (NPP) Time (NPP) NPP Lat,Lon Distance(km) Time Diff (sec)
1 05/08/2013 08:15:15 41.79, -91.41 05/08/2013 08:12:53 42.27, -94.22 237.98 142
2 05/08/2013 09:57:54 39.80,-117.62 05/08/2013 09:54:57 40.29,-120.27 232.74 177
3 05/08/2013 18:03:03 49.95, -77.04 05/08/2013 17:57:24 49.67, -78.73 125.39 339
4 05/08/2013 19:45:08 49.97,-102.57 05/08/2013 19:38:54 49.68,-104.11 115.32 374
5 05/08/2013 21:24:59 42.32,-125.00 05/08/2013 21:18:34 43.33,-126.94 194.56 385
